TimeMST,TemperatureF,Dew PointF,Humidity,Sea Level PressureIn,VisibilityMPH,Wind Direction,Wind SpeedMPH,Gust SpeedMPH,PrecipitationIn,Events,Conditions,WindDirDegrees,DateUTC
12:53 AM,18.0,12.9,81,30.47,10.0,NE,3.5,-,N/A,,Overcast,40,2013-01-20 07:53:00
1:07 AM,17.6,12.2,79,30.36,10.0,NE,4.6,-,N/A,,Overcast,50,2013-01-20 08:07:00
1:53 AM,19.0,12.9,77,30.52,10.0,NNE,15.0,19.6,N/A,,Overcast,20,2013-01-20 08:53:00
2:50 AM,15.8,8.6,73,30.45,10.0,NNE,16.1,-,N/A,,Overcast,30,2013-01-20 09:50:00
2:53 AM,16.0,8.1,71,30.58,10.0,NNE,15.0,-,N/A,,Overcast,20,2013-01-20 09:53:00
3:53 AM,15.1,7.0,70,30.61,10.0,NE,8.1,-,N/A,,Overcast,50,2013-01-20 10:53:00
4:53 AM,15.1,6.1,68,30.66,10.0,NNE,5.8,-,0.00,Snow,Light Snow,20,2013-01-20 11:53:00
5:53 AM,12.9,3.0,65,30.68,10.0,North,11.5,-,0.00,,Overcast,10,2013-01-20 12:53:00
6:53 AM,10.0,1.9,70,30.68,7.0,NNE,11.5,-,0.00,Snow,Light Snow,30,2013-01-20 13:53:00
7:53 AM,8.1,1.0,73,30.71,5.0,NE,10.4,-,0.00,Snow,Light Snow,50,2013-01-20 14:53:00
8:43 AM,6.8,-0.4,72,30.57,2.5,NE,8.1,-,0.00,Snow,Light Snow,50,2013-01-20 15:43:00
8:53 AM,6.1,-0.0,76,30.73,2.5,NE,6.9,-,0.00,Snow,Light Snow,50,2013-01-20 15:53:00
9:09 AM,6.8,-0.4,72,30.58,3.0,NE,6.9,-,0.01,Snow,Light Snow,40,2013-01-20 16:09:00
9:53 AM,6.1,-0.0,76,30.73,3.0,East,4.6,-,0.01,Snow,Light Snow,80,2013-01-20 16:53:00
10:53 AM,7.0,-0.0,73,30.74,5.0,ENE,4.6,-,0.00,Snow,Light Snow,70,2013-01-20 17:53:00
11:53 AM,8.1,-0.0,70,30.71,9.0,Calm,Calm,-,0.00,,Overcast,0,2013-01-20 18:53:00
12:53 PM,8.1,-0.9,67,30.69,10.0,NW,5.8,-,N/A,,Overcast,320,2013-01-20 19:53:00
1:53 PM,8.1,-0.0,70,30.65,10.0,West,3.5,-,N/A,,Overcast,280,2013-01-20 20:53:00
2:53 PM,8.1,-0.9,67,30.64,10.0,WNW,4.6,-,N/A,,Overcast,290,2013-01-20 21:53:00
3:53 PM,8.1,-0.0,70,30.63,10.0,WNW,4.6,-,N/A,,Overcast,290,2013-01-20 22:53:00
4:53 PM,8.1,-0.9,67,30.63,10.0,NNW,3.5,-,N/A,,Overcast,330,2013-01-20 23:53:00
5:53 PM,8.1,-0.9,67,30.62,10.0,Calm,Calm,-,N/A,,Overcast,0,2013-01-21 00:53:00
6:53 PM,7.0,-0.9,70,30.61,10.0,North,4.6,-,N/A,,Overcast,10,2013-01-21 01:53:00
7:53 PM,6.1,-2.0,69,30.61,10.0,NNE,3.5,-,N/A,,Mostly Cloudy,20,2013-01-21 02:53:00
8:53 PM,5.0,-0.9,76,30.60,10.0,NE,5.8,-,N/A,,Overcast,50,2013-01-21 03:53:00
9:53 PM,3.9,-2.0,76,30.58,10.0,ENE,6.9,-,N/A,,Overcast,60,2013-01-21 04:53:00
10:53 PM,5.0,-0.9,76,30.56,10.0,NE,8.1,-,N/A,,Overcast,40,2013-01-21 05:53:00
11:53 PM,5.0,-0.9,76,30.54,10.0,NE,5.8,-,N/A,,Overcast,50,2013-01-21 06:53:00